User: anonymous   Login
Location: Asheville, NC
(35.6000°N, 82.5500°W)
Time: 00:07:54
(UTC-05:00)
Language:

DUCHIFAT 1 - Orbit

View from above orbital plane
View from above orbital plane
View from above satellite
View from above satellite

Ground track
Ground track

The orbit data is extracted from the following two-line orbital elements,

1 40021U 14033M   18019.73663365  .00000380  00000-0  45113-4 0  9995
2 40021  97.9178 298.1888 0012051 312.7598  47.2604 14.90173727194848
Epoch (UTC): 19 January 2018 17:40:45
Eccentricity: 0.0012051
inclination: 97.9178°
perigee height: 589 km
apogee height: 606 km
right ascension of ascending node: 298.1888°
argument of perigee: 312.7598°
revolutions per day: 14.90173727
mean anomaly at epoch: 47.2604°
orbit number at epoch: 19484

The dashed part of the orbit path shows where the satellite is in the earth's shadow,  

DLR